Wind_Speed
56 55 53 56 63 66 64 62 62 60 57 56 54 49 47 47 48 50 50 49 48 47 46 44 41 39 39 38 37 36 35 34 33 31 30 29 29 28 26 25 24 22
59 59 57 55 59 66 69 67 65 64 62 62 61 55 51 49 49 50 50 50 50 50 49 47 45 44 42 40 38 37 36 34 33 32 31 30 30 29 28 27 26 25
63 62 61 59 57 62 69 71 70 67 64 65 66 63 57 54 53 51 51 51 50 50 50 49 47 46 44 42 40 39 37 35 34 33 32 32 32 32 30 29 29 27
67 66 64 63 61 60 64 71 73 71 66 64 67 67 64 59 56 54 52 52 51 51 51 50 48 47 46 45 43 40 39 38 36 34 34 34 34 34 32 31 31 29
69 69 68 67 65 63 62 66 72 74 71 66 65 67 67 64 60 56 54 53 52 52 51 51 50 48 47 45 43 42 42 41 39 37 36 36 36 35 34 33 32 30
71 71 72 71 69 67 65 64 67 72 75 73 69 67 67 67 64 61 57 55 54 53 52 51 50 49 47 44 43 43 44 44 42 41 39 38 37 37 36 35 33 31
73 73 74 74 73 71 69 67 66 67 71 75 74 71 69 69 68 64 61 58 56 55 54 52 51 50 48 45 43 43 44 45 44 43 41 39 39 38 38 36 35 33
76 75 75 75 75 75 73 72 69 67 67 70 74 74 72 70 70 68 64 62 59 57 56 54 53 51 49 46 44 45 46 47 46 45 43 42 40 39 39 38 37 35
79 78 77 77 77 77 77 75 73 71 68 67 70 74 75 73 71 70 67 64 62 60 58 56 54 52 48 44 45 48 50 49 47 46 45 44 42 40 40 40 39 37
81 82 81 80 79 79 79 78 77 75 72 69 68 71 75 75 73 71 69 67 65 63 60 59 57 53 47 43 46 51 51 49 49 48 47 45 43 41 40 41 41 38
82 84 84 83 82 81 80 80 79 78 76 73 70 69 72 76 75 73 71 69 67 65 63 61 59 56 51 47 49 53 51 48 48 48 48 47 46 44 42 42 42 40
81 83 85 86 85 83 82 81 81 80 78 76 74 70 70 74 76 75 73 71 68 66 65 63 62 60 56 51 52 54 52 50 49 49 49 48 48 47 45 45 44 42
80 82 84 86 87 87 85 83 82 82 81 79 77 74 71 72 75 74 73 72 70 67 65 64 64 63 59 55 55 54 53 51 50 49 49 49 49 50 48 47 46 44
81 82 83 85 88 89 88 86 84 84 83 81 79 77 73 72 73 73 72 72 72 69 66 64 64 63 61 58 56 55 53 52 50 48 48 48 49 50 49 48 47 45
81 83 83 84 86 88 90 89 87 86 85 83 81 80 77 73 73 73 72 72 72 70 67 66 64 63 61 58 57 56 55 54 51 49 48 48 48 50 50 49 48 47
76 81 83 84 85 86 89 90 89 88 86 85 83 81 79 76 73 72 72 73 73 71 69 68 66 63 61 60 59 57 55 54 52 50 50 49 48 49 50 50 49 49
70 75 81 84 85 85 87 88 90 90 88 86 84 82 81 79 75 72 72 74 74 72 70 69 68 66 63 61 60 57 56 54 52 50 51 51 51 52 53 52 51 52
64 70 76 82 86 87 86 86 88 90 89 88 86 83 82 81 77 74 73 74 74 72 70 70 70 68 65 63 61 60 58 56 53 51 51 52 55 57 58 56 55 55
60 65 71 77 83 87 87 86 86 87 89 89 87 85 83 82 79 76 74 74 73 71 69 70 70 70 67 65 63 62 60 58 56 54 53 54 54 57 60 59 56 56
55 61 66 72 78 83 86 86 85 85 87 88 88 86 85 82 80 78 76 75 74 72 70 69 70 71 69 66 64 63 61 60 60 58 58 58 56 56 61 62 56 55
50 55 60 66 72 78 82 85 85 84 84 86 87 87 86 83 81 80 78 75 75 74 71 69 69 70 68 66 64 64 63 63 64 63 62 63 61 58 61 63 59 57
45 48 53 58 65 72 78 82 84 84 82 83 86 88 86 84 82 81 79 76 77 76 72 69 68 67 67 67 66 66 65 65 66 65 64 66 66 65 66 67 65 60
41 44 47 51 59 67 74 78 82 83 82 81 84 87 86 85 83 82 80 78 78 77 74 72 69 65 65 67 67 68 69 69 67 66 66 66 68 70 71 72 68 63
38 40 43 48 54 63 70 74 77 81 82 81 82 85 85 85 84 83 81 79 79 78 76 73 70 66 63 63 65 67 70 71 70 68 68 69 70 71 71 71 69 65
36 38 41 46 52 59 66 70 73 78 82 81 81 83 85 85 85 84 82 81 79 79 77 75 71 67 64 62 62 65 69 72 72 71 71 71 72 72 72 71 70 67
33 35 39 44 50 55 61 66 70 75 81 82 80 82 85 85 85 85 83 82 80 79 78 76 72 69 65 63 62 63 67 70 72 72 73 74 74 74 74 74 72 70
Wind_Direction
227 224 221 219 216 212 209 206 207 212 216 218 217 216 215 215 216 218 220 221 219 217 217 216 216 217 220 223 224 226 227 227 229 229 229 233 239 243 247 251 256 259
228 225 223 221 218 216 214 210 209 212 217 220 220 218 218 218 217 217 219 221 221 220 219 218 219 220 221 222 223 225 225 225 228 230 231 233 237 241 245 250 254 257
230 227 224 222 221 219 217 215 213 212 215 220 222 221 222 222 221 219 220 221 221 222 222 221 221 222 224 224 225 226 226 225 227 230 232 235 238 241 244 249 252 255
231 229 226 224 222 221 219 218 217 215 214 217 222 224 223 223 223 221 221 222 222 222 223 222 222 224 225 226 226 227 229 228 227 229 234 237 240 243 246 249 252 254
230 230 228 226 224 222 221 220 220 218 216 216 219 223 224 223 222 222 222 223 223 223 223 224 223 224 225 226 227 229 230 231 229 229 233 238 242 245 247 249 251 253
229 229 229 228 225 224 223 222 221 221 220 219 218 221 224 224 223 223 223 223 223 224 224 224 224 224 224 225 227 231 232 233 232 231 232 237 241 245 247 248 249 251
229 228 228 228 227 226 224 224 223 222 222 222 221 220 222 225 225 224 224 224 224 224 224 224 224 223 224 226 228 232 235 235 235 234 234 237 240 244 246 247 246 248
230 228 228 228 228 227 226 225 224 223 223 223 223 220 220 223 225 225 224 225 224 225 225 225 225 225 226 229 230 232 235 236 236 237 236 237 239 242 245 245 244 246
230 229 228 227 227 227 227 226 225 225 224 223 223 222 220 221 224 225 225 226 225 225 226 226 226 226 227 230 233 234 234 235 236 237 238 237 238 240 242 243 243 245
230 230 229 227 226 226 227 227 226 225 225 224 223 223 221 220 222 224 225 226 227 226 227 227 227 226 223 224 231 234 235 236 237 237 238 238 237 238 241 243 243 245
231 230 230 228 227 226 226 227 227 226 226 225 224 223 222 221 221 222 224 226 227 227 227 228 228 227 223 222 230 234 233 235 236 237 238 239 238 238 240 243 245 246
231 230 230 229 228 226 225 225 226 227 226 226 225 224 223 222 222 222 223 224 226 227 228 228 229 228 225 226 232 233 231 232 234 235 238 240 240 240 241 243 245 247
232 231 230 229 228 227 225 224 225 226 226 226 225 224 223 222 222 223 223 224 225 226 228 229 229 229 227 227 231 232 230 232 234 236 239 241 242 242 242 243 245 246
231 231 230 229 228 227 226 224 223 224 225 225 225 225 224 223 222 222 222 223 224 225 226 228 229 229 228 228 230 231 230 230 232 234 237 240 242 243 243 244 245 245
231 231 230 229 228 227 227 225 223 223 224 224 224 225 224 223 222 221 221 222 224 224 225 227 228 229 228 227 229 231 231 230 230 232 235 238 242 243 243 243 244 244
230 230 230 230 229 228 227 226 224 223 223 223 223 223 224 223 222 221 220 221 222 223 224 226 228 228 228 227 227 230 232 232 231 232 233 236 240 242 242 243 244 244
229 229 229 229 229 228 227 226 225 223 222 222 222 222 223 223 222 221 220 219 221 222 223 225 227 228 228 228 228 229 230 232 232 232 234 237 240 242 242 242 243 244
228 227 227 227 227 228 227 226 224 223 222 221 221 221 221 222 222 221 220 219 219 221 222 224 226 228 228 228 228 228 229 231 231 232 235 239 243 244 244 244 243 243
229 227 226 226 226 226 226 225 224 223 222 221 220 220 220 221 220 220 220 219 218 219 220 222 225 227 228 228 228 229 230 231 233 233 234 239 243 245 245 243 242 242
231 228 226 225 225 225 225 224 223 222 221 220 219 220 220 219 219 219 220 219 217 217 218 220 224 227 228 228 229 231 232 232 234 234 234 234 237 241 243 242 241 243
235 231 228 225 225 224 224 223 222 221 219 218 218 218 219 218 218 218 219 219 218 216 215 217 222 225 227 228 228 230 232 232 233 233 233 232 232 236 241 244 244 245
238 234 230 226 224 223 223 222 221 220 218 217 216 217 218 217 217 217 218 218 218 217 214 215 219 222 224 226 227 228 229 231 232 232 233 233 234 236 241 246 248 247
241 235 230 226 223 222 221 221 219 218 216 215 215 215 216 217 216 216 217 217 218 217 214 214 216 219 222 224 225 227 229 230 230 231 231 233 235 238 242 246 249 249
242 235 230 226 222 220 220 219 218 215 214 214 213 214 215 216 216 216 215 216 217 217 215 214 215 218 221 223 224 227 230 232 232 232 232 233 235 239 242 245 247 248
241 235 228 224 222 220 218 218 216 213 212 212 211 212 213 214 215 215 214 215 217 217 216 214 215 217 220 221 223 226 230 233 234 234 234 234 236 238 241 243 245 248
240 234 228 223 221 219 217 215 214 211 209 209 209 210 211 213 215 215 214 214 216 216 216 215 215 216 218 219 221 224 227 231 234 235 235 235 236 238 241 243 245 248
Height
10671 10675 10678 10681 10685 10689 10693 10696 10699 10702 10705 10708 10711 10715 10719 10723 10728 10731 10734 10738 10741 10744 10746 10749 10751 10752 10754 10756 10757 10759 10760 10762 10764 10765 10767 10767 10768 10769 10769 10769 10769 10769
10664 10667 10671 10675 10678 10682 10686 10689 10692 10696 10699 10702 10705 10709 10714 10718 10722 10726 10729 10732 10736 10739 10742 10744 10747 10748 10750 10752 10753 10755 10757 10759 10760 10762 10763 10764 10765 10765 10766 10766 10766 10766
10655 10660 10664 10668 10671 10675 10678 10682 10685 10689 10693 10696 10699 10704 10708 10713 10717 10720 10724 10727 10731 10734 10737 10740 10743 10744 10746 10748 10750 10752 10753 10755 10757 10758 10760 10760 10761 10761 10762 10762 10763 10763
10647 10652 10656 10660 10664 10668 10671 10674 10678 10682 10686 10690 10694 10698 10703 10707 10711 10715 10718 10722 10726 10729 10732 10735 10738 10740 10743 10745 10747 10748 10750 10751 10753 10755 10756 10756 10757 10758 10759 10759 10759 10760
10639 10643 10647 10652 10656 10660 10664 10667 10671 10675 10679 10683 10688 10692 10696 10701 10705 10709 10713 10716 10720 10724 10727 10731 10734 10736 10739 10741 10743 10745 10745 10747 10749 10751 10751 10752 10753 10754 10755 10756 10756 10757
10630 10634 10638 10643 10648 10652 10656 10660 10663 10667 10672 10677 10681 10686 10690 10694 10699 10703 10707 10710 10714 10718 10722 10726 10729 10732 10735 10738 10739 10740 10741 10743 10745 10746 10747 10748 10749 10751 10751 10752 10753 10754
10621 10625 10629 10634 10639 10644 10648 10652 10656 10660 10664 10669 10674 10679 10683 10687 10692 10696 10701 10705 10709 10713 10717 10721 10725 10729 10732 10735 10736 10737 10738 10739 10741 10742 10744 10744 10745 10747 10748 10749 10749 10750
10612 10616 10620 10625 10630 10635 10639 10643 10648 10652 10657 10661 10666 10671 10676 10681 10685 10689 10694 10698 10703 10707 10711 10716 10720 10725 10728 10731 10734 10734 10734 10735 10737 10738 10739 10740 10742 10743 10744 10745 10745 10746
10602 10606 10611 10616 10621 10625 10630 10635 10639 10644 10649 10653 10658 10663 10669 10674 10678 10683 10687 10692 10696 10701 10706 10710 10715 10720 10725 10728 10729 10729 10729 10730 10732 10734 10735 10736 10738 10739 10739 10740 10741 10743
10592 10596 10600 10605 10611 10616 10621 10625 10630 10636 10640 10645 10650 10656 10661 10666 10671 10676 10681 10685 10690 10695 10699 10704 10709 10714 10720 10723 10723 10723 10725 10726 10728 10729 10730 10732 10734 10735 10735 10736 10737 10739
10581 10585 10589 10595 10601 10606 10611 10616 10621 10627 10632 10638 10643 10648 10653 10659 10664 10669 10674 10679 10683 10688 10693 10698 10703 10708 10713 10717 10717 10718 10721 10723 10723 10725 10726 10727 10729 10731 10731 10732 10733 10736
10570 10574 10579 10585 10591 10596 10602 10607 10612 10618 10624 10629 10635 10640 10646 10651 10656 10662 10667 10672 10677 10681 10686 10691 10695 10701 10707 10712 10712 10713 10716 10718 10719 10720 10721 10723 10725 10726 10727 10728 10730 10732
10558 10563 10568 10573 10579 10585 10591 10598 10603 10609 10615 10620 10626 10632 10638 10643 10649 10654 10660 10665 10670 10675 10680 10684 10689 10694 10700 10705 10706 10708 10710 10712 10714 10715 10718 10719 10720 10722 10723 10724 10726 10728
10547 10551 10557 10562 10568 10574 10580 10587 10594 10599 10605 10611 10618 10624 10630 10636 10641 10647 10653 10658 10664 10669 10674 10678 10682 10687 10693 10698 10700 10702 10704 10706 10708 10711 10714 10716 10716 10717 10719 10720 10722 10723
10536 10541 10546 10551 10557 10562 10569 10577 10584 10590 10595 10602 10609 10615 10622 10628 10634 10640 10646 10651 10656 10662 10667 10671 10675 10680 10686 10691 10694 10695 10697 10700 10703 10706 10709 10711 10711 10712 10713 10715 10717 10718
10526 10530 10535 10541 10546 10551 10558 10566 10573 10580 10586 10593 10600 10607 10614 10620 10627 10634 10640 10644 10648 10655 10660 10664 10668 10674 10679 10683 10687 10689 10692 10694 10698 10701 10703 10706 10706 10705 10707 10709 10711 10712
10514 10519 10524 10529 10534 10540 10547 10554 10562 10570 10577 10584 10591 10598 10605 10612 10620 10627 10633 10637 10641 10647 10653 10657 10661 10666 10671 10676 10681 10684 10686 10689 10692 10695 10698 10700 10700 10699 10700 10703 10705 10706
10503 10507 10512 10516 10522 10528 10535 10543 10551 10560 10568 10575 10582 10590 10597 10604 10612 10620 10625 10630 10635 10640 10646 10650 10654 10659 10664 10669 10674 10677 10680 10683 10686 10690 10693 10694 10693 10693 10694 10697 10698 10700
10493 10496 10500 10505 10509 10515 10523 10532 10540 10549 10558 10566 10574 10582 10588 10596 10604 10612 10618 10623 10629 10634 10639 10643 10647 10652 10657 10662 10666 10670 10674 10677 10680 10683 10686 10687 10687 10687 10687 10689 10692 10694
10484 10487 10491 10495 10499 10504 10512 10521 10530 10539 10548 10558 10566 10573 10580 10588 10597 10603 10609 10616 10622 10626 10631 10637 10641 10645 10650 10655 10660 10664 10668 10670 10673 10676 10677 10679 10680 10679 10679 10682 10686 10689
10476 10479 10483 10486 10490 10495 10502 10510 10520 10529 10539 10549 10558 10564 10571 10580 10589 10595 10602 10609 10614 10618 10625 10632 10635 10638 10644 10650 10654 10657 10660 10662 10664 10667 10668 10670 10672 10672 10672 10676 10681 10683
10469 10472 10475 10479 10482 10487 10493 10500 10510 10520 10530 10540 10549 10556 10564 10573 10580 10587 10595 10602 10606 10611 10620 10625 10628 10631 10637 10642 10646 10650 10652 10654 10657 10660 10662 10665 10667 10668 10668 10670 10674 10678
10462 10465 10468 10471 10474 10478 10484 10491 10500 10511 10522 10532 10540 10548 10557 10565 10572 10580 10588 10595 10599 10605 10613 10618 10621 10625 10629 10634 10639 10643 10645 10647 10650 10654 10657 10660 10662 10663 10663 10665 10668 10672
10455 10458 10460 10463 10466 10470 10476 10483 10493 10503 10514 10523 10533 10542 10550 10557 10565 10572 10581 10587 10592 10598 10606 10612 10616 10620 10624 10628 10633 10637 10639 10641 10645 10648 10651 10653 10655 10656 10657 10659 10662 10666
10449 10452 10454 10456 10459 10463 10470 10477 10486 10496 10506 10516 10526 10535 10543 10550 10557 10565 10573 10580 10585 10592 10600 10606 10610 10615 10619 10623 10628 10632 10634 10635 10638 10642 10644 10647 10649 10651 10651 10653 10656 10660
10444 10446 10448 10451 10454 10458 10465 10472 10480 10489 10499 10509 10520 10529 10536 10543 10550 10557 10566 10574 10579 10586 10593 10599 10604 10609 10613 10618 10622 10626 10629 10630 10632 10635 10637 10640 10643 10645 10646 10648 10651 10654